RYR95LQ LBSF-EPMO

Flight info

Callsign RYR95LQ
Flight time 1h 43m
Altitude 38000
Route OGOTA N133 ERDOM DCT BADOR DCT KENIN DCT MONOV L621 LIMVI
Aircraft B38M/M-SADE3FGILRWY/SB1

Departure

Time 2026-04-29 17:00
Airport Sofia Airport (LBSF)

Arrival

Time 2026-04-29 18:44
Airport Warsaw Modlin Airport (EPMO)
Time Latitude Longitude Altitude Speed Heading
2026-04-29 16:28 42.69076 23.39737 1752 ft 0 kts 240°
2026-04-29 16:55 42.69076 23.39735 1755 ft 1 kts 253°
2026-04-29 16:55 42.69083 23.39714 1752 ft 5 kts 311°
2026-04-29 16:55 42.69115 23.39709 1753 ft 3 kts 45°
2026-04-29 16:56 42.69144 23.39708 1751 ft 9 kts 320°
2026-04-29 16:56 42.69185 23.39580 1751 ft 19 kts 313°
2026-04-29 16:56 42.69301 23.39563 1755 ft 16 kts
2026-04-29 16:56 42.69418 23.39572 1755 ft 18 kts 10°
2026-04-29 16:57 42.69546 23.39584 1755 ft 12 kts
2026-04-29 16:57 42.69549 23.39584 1755 ft 0 kts
2026-04-29 16:59 42.69595 23.39587 1750 ft 14 kts
2026-04-29 16:59 42.69717 23.39598 1750 ft 19 kts
2026-04-29 16:59 42.69767 23.39735 1748 ft 20 kts 95°
2026-04-29 17:00 42.69749 23.40040 1757 ft 60 kts 95°
2026-04-29 17:00 42.69698 23.40954 1752 ft 132 kts 94°
2026-04-29 17:00 42.69602 23.42440 1928 ft 175 kts 97°
2026-04-29 17:00 42.69477 23.44198 2402 ft 198 kts 96°
2026-04-29 17:01 42.69358 23.46127 3184 ft 207 kts 95°
2026-04-29 17:01 42.69371 23.48072 4160 ft 211 kts 76°
2026-04-29 17:01 42.70217 23.49770 4833 ft 231 kts 37°
2026-04-29 17:01 42.71782 23.50602 5384 ft 257 kts
2026-04-29 17:02 42.73582 23.50393 6277 ft 266 kts 342°
2026-04-29 17:02 42.75380 23.49623 7250 ft 272 kts 344°
2026-04-29 17:02 42.77225 23.49070 8452 ft 271 kts 345°
2026-04-29 17:02 42.79069 23.48506 9577 ft 273 kts 345°
2026-04-29 17:03 42.80930 23.47932 10587 ft 277 kts 345°
2026-04-29 17:03 42.82855 23.47333 11280 ft 292 kts 345°
2026-04-29 17:03 42.84893 23.46707 11886 ft 308 kts 346°
2026-04-29 17:03 42.87026 23.46051 12550 ft 320 kts 346°
2026-04-29 17:04 42.89204 23.45368 13475 ft 322 kts 346°
2026-04-29 17:04 42.91414 23.44663 14245 ft 330 kts 346°
2026-04-29 17:04 42.93660 23.43951 15041 ft 332 kts 346°
2026-04-29 17:04 42.95921 23.43222 15818 ft 337 kts 345°
2026-04-29 17:05 42.98223 23.42485 16562 ft 341 kts 345°
2026-04-29 17:05 43.00547 23.41738 17299 ft 345 kts 345°
2026-04-29 17:05 43.02900 23.40981 18024 ft 349 kts 345°
2026-04-29 17:05 43.05274 23.40216 18707 ft 353 kts 345°
2026-04-29 17:06 43.07678 23.39442 19304 ft 357 kts 344°
2026-04-29 17:06 43.10107 23.38657 19917 ft 361 kts 344°
2026-04-29 17:06 43.12562 23.37864 20525 ft 364 kts 344°
2026-04-29 17:06 43.15009 23.37071 21106 ft 368 kts 344°
2026-04-29 17:07 43.17541 23.36251 21716 ft 371 kts 343°
2026-04-29 17:07 43.19208 23.35710 22105 ft 373 kts 343°
2026-04-29 17:07 43.22580 23.34616 22884 ft 378 kts 343°
2026-04-29 17:07 43.25158 23.33777 23450 ft 382 kts 343°
2026-04-29 17:08 43.27752 23.32933 23937 ft 385 kts 343°
2026-04-29 17:08 43.30371 23.32081 24426 ft 387 kts 343°
2026-04-29 17:08 43.33001 23.31250 24936 ft 389 kts 345°
2026-04-29 17:08 43.35716 23.30892 25432 ft 395 kts 354°
2026-04-29 17:09 43.38458 23.30687 25901 ft 394 kts 349°
2026-04-29 17:09 43.41197 23.30276 26340 ft 397 kts 350°
2026-04-29 17:09 43.43955 23.29907 26828 ft 399 kts 350°
2026-04-29 17:09 43.46730 23.29550 27296 ft 401 kts 350°
2026-04-29 17:10 43.49513 23.29198 27730 ft 404 kts 350°
2026-04-29 17:10 43.52306 23.28754 28165 ft 402 kts 344°
2026-04-29 17:10 43.55034 23.27899 28568 ft 404 kts 344°
2026-04-29 17:10 43.57813 23.27168 28963 ft 408 kts 345°
2026-04-29 17:11 43.60611 23.26457 29380 ft 409 kts 345°
2026-04-29 17:11 43.63419 23.25735 29780 ft 412 kts 345°
2026-04-29 17:11 43.66242 23.25007 30144 ft 414 kts 345°
2026-04-29 17:11 43.69084 23.24273 30474 ft 416 kts 345°
2026-04-29 17:12 43.71942 23.23533 30785 ft 419 kts 345°
2026-04-29 17:12 43.74809 23.22790 31095 ft 421 kts 345°
2026-04-29 17:12 43.77691 23.22043 31429 ft 422 kts 345°
2026-04-29 17:12 43.78670 23.21789 31545 ft 423 kts 345°
2026-04-29 17:13 43.82546 23.20783 31952 ft 426 kts 345°
2026-04-29 17:13 43.85468 23.20023 32258 ft 428 kts 345°
2026-04-29 17:13 43.88402 23.19259 32573 ft 429 kts 345°
2026-04-29 17:13 43.91298 23.18505 32882 ft 431 kts 345°
2026-04-29 17:14 43.94254 23.17734 33188 ft 432 kts 345°
2026-04-29 17:14 43.97207 23.16963 33582 ft 432 kts 345°
2026-04-29 17:14 44.00150 23.16195 34059 ft 429 kts 345°
2026-04-29 17:14 44.03079 23.15429 34445 ft 428 kts 345°
2026-04-29 17:15 44.06006 23.14662 34763 ft 427 kts 345°
2026-04-29 17:15 44.08926 23.13897 35064 ft 427 kts 345°
2026-04-29 17:15 44.11849 23.13130 35382 ft 427 kts 345°
2026-04-29 17:15 44.14769 23.12363 35700 ft 426 kts 345°
2026-04-29 17:16 44.17682 23.11597 35992 ft 426 kts 345°
2026-04-29 17:16 44.20592 23.10832 36280 ft 426 kts 345°
2026-04-29 17:16 44.23507 23.10064 36557 ft 426 kts 345°
2026-04-29 17:16 44.26415 23.09297 36843 ft 425 kts 345°
2026-04-29 17:17 44.29321 23.08530 37116 ft 425 kts 345°
2026-04-29 17:17 44.32229 23.07761 37368 ft 425 kts 345°
2026-04-29 17:17 44.35138 23.06992 37625 ft 425 kts 345°
2026-04-29 17:17 44.38037 23.06224 37882 ft 424 kts 345°
2026-04-29 17:18 44.40939 23.05455 38091 ft 425 kts 345°
2026-04-29 17:18 44.43843 23.04685 38122 ft 424 kts 345°
2026-04-29 17:18 44.49629 23.03148 38118 ft 423 kts 345°
2026-04-29 17:19 44.55411 23.01609 38113 ft 423 kts 345°
2026-04-29 17:19 44.61195 23.00066 38114 ft 423 kts 345°
2026-04-29 17:20 44.66971 22.98522 38114 ft 423 kts 345°
2026-04-29 17:20 44.72749 22.96974 38110 ft 422 kts 345°
2026-04-29 17:21 44.78526 22.95424 38111 ft 423 kts 345°
2026-04-29 17:21 44.84294 22.93873 38114 ft 422 kts 345°
2026-04-29 17:22 44.90066 22.92317 38116 ft 422 kts 345°
2026-04-29 17:22 44.95842 22.90757 38116 ft 422 kts 345°
2026-04-29 17:23 45.01614 22.89195 38120 ft 422 kts 345°
2026-04-29 17:23 45.07385 22.87631 38122 ft 422 kts 345°
2026-04-29 17:24 45.13147 22.86065 38129 ft 422 kts 345°
2026-04-29 17:24 45.18908 22.84497 38135 ft 422 kts 345°
2026-04-29 17:25 45.24670 22.82925 38138 ft 422 kts 345°
2026-04-29 17:25 45.30434 22.81349 38152 ft 422 kts 345°
2026-04-29 17:26 45.36193 22.79771 38155 ft 421 kts 345°
2026-04-29 17:26 45.41952 22.78190 38153 ft 421 kts 345°
2026-04-29 17:27 45.47668 22.76617 38151 ft 422 kts 345°
2026-04-29 17:27 45.53426 22.75031 38147 ft 421 kts 345°
2026-04-29 17:28 45.59180 22.73440 38141 ft 421 kts 345°
2026-04-29 17:28 45.64938 22.71846 38146 ft 421 kts 345°
2026-04-29 17:29 45.70690 22.70251 38145 ft 421 kts 345°
2026-04-29 17:29 45.75516 22.68910 38148 ft 421 kts 345°
2026-04-29 17:30 45.82202 22.67048 38144 ft 421 kts 345°
2026-04-29 17:30 45.87948 22.65443 38150 ft 421 kts 344°
2026-04-29 17:31 45.93695 22.63836 38146 ft 421 kts 344°
2026-04-29 17:31 45.99440 22.62225 38152 ft 421 kts 344°
2026-04-29 17:32 46.05225 22.60600 38147 ft 427 kts 344°
2026-04-29 17:32 46.11101 22.58946 38155 ft 432 kts 344°
2026-04-29 17:33 46.17004 22.57281 38152 ft 432 kts 344°
2026-04-29 17:33 46.22910 22.55611 38156 ft 432 kts 344°
2026-04-29 17:34 46.28814 22.53937 38164 ft 432 kts 344°
2026-04-29 17:34 46.34717 22.52261 38167 ft 432 kts 344°
2026-04-29 17:35 46.43564 22.49741 38172 ft 432 kts 344°
2026-04-29 17:36 46.49452 22.48060 38181 ft 431 kts 344°
2026-04-29 17:36 46.55337 22.46376 38185 ft 431 kts 344°
2026-04-29 17:37 46.61212 22.44691 38184 ft 430 kts 344°
2026-04-29 17:37 46.67085 22.43002 38197 ft 430 kts 344°
2026-04-29 17:38 46.72953 22.41311 38189 ft 430 kts 344°
2026-04-29 17:38 46.78826 22.39615 38200 ft 430 kts 344°
2026-04-29 17:39 46.84694 22.37918 38198 ft 430 kts 344°
2026-04-29 17:39 46.90565 22.36214 38207 ft 430 kts 343°
2026-04-29 17:40 46.96433 22.34509 38205 ft 431 kts 343°
2026-04-29 17:40 47.02313 22.32796 38205 ft 431 kts 343°
2026-04-29 17:41 47.08189 22.31080 38208 ft 431 kts 343°
2026-04-29 17:41 47.14079 22.29357 38211 ft 432 kts 343°
2026-04-29 17:42 47.19976 22.27627 38210 ft 432 kts 343°
2026-04-29 17:42 47.25876 22.25892 38208 ft 433 kts 343°
2026-04-29 17:43 47.31780 22.24152 38203 ft 433 kts 343°
2026-04-29 17:43 47.37697 22.22405 38204 ft 433 kts 343°
2026-04-29 17:44 47.43609 22.20656 38223 ft 434 kts 344°
2026-04-29 17:44 47.49521 22.18901 38228 ft 433 kts 344°
2026-04-29 17:45 47.55423 22.17146 38221 ft 433 kts 344°
2026-04-29 17:45 47.61316 22.15390 38227 ft 432 kts 344°
2026-04-29 17:46 47.67209 22.13629 38228 ft 431 kts 344°
2026-04-29 17:46 47.73087 22.11870 38229 ft 431 kts 344°
2026-04-29 17:47 47.78955 22.10108 38236 ft 430 kts 344°
2026-04-29 17:47 47.84814 22.08346 38236 ft 429 kts 344°
2026-04-29 17:48 47.90667 22.06581 38240 ft 429 kts 344°
2026-04-29 17:48 47.96521 22.04812 38240 ft 429 kts 344°
2026-04-29 17:49 48.02336 22.03051 38244 ft 429 kts 344°
2026-04-29 17:49 48.08197 22.01271 38038 ft 429 kts 344°
2026-04-29 17:49 48.11116 22.00383 37800 ft 428 kts 344°
2026-04-29 17:50 48.14034 21.99495 37551 ft 428 kts 344°
2026-04-29 17:50 48.16955 21.98604 37329 ft 428 kts 343°
2026-04-29 17:50 48.19870 21.97715 37255 ft 428 kts 343°
2026-04-29 17:51 48.25725 21.95925 37254 ft 430 kts 343°
2026-04-29 17:51 48.31593 21.94127 37259 ft 430 kts 343°
2026-04-29 17:52 48.37536 21.92812 37245 ft 439 kts 359°
2026-04-29 17:52 48.43609 21.94584 37257 ft 444 kts
2026-04-29 17:53 48.49756 21.95593 37272 ft 444 kts
2026-04-29 17:53 48.55904 21.96564 37274 ft 445 kts
2026-04-29 17:54 48.62067 21.97541 37276 ft 446 kts
2026-04-29 17:54 48.68237 21.98522 37281 ft 446 kts
2026-04-29 17:55 48.74416 21.99507 37289 ft 447 kts
2026-04-29 17:55 48.80611 22.00496 37284 ft 447 kts
2026-04-29 17:56 48.86805 22.01489 37297 ft 448 kts
2026-04-29 17:56 48.93008 22.02485 37305 ft 448 kts
2026-04-29 17:57 48.98162 22.03314 37305 ft 448 kts
2026-04-29 17:57 49.04368 22.04315 37305 ft 449 kts
2026-04-29 17:58 49.11589 22.05483 37314 ft 449 kts
2026-04-29 17:58 49.16798 22.06328 37322 ft 449 kts
2026-04-29 17:59 49.23018 22.07339 37322 ft 449 kts
2026-04-29 17:59 49.29198 22.08346 37328 ft 450 kts
2026-04-29 18:00 49.35421 22.09362 37331 ft 450 kts
2026-04-29 18:00 49.41649 22.10382 37331 ft 450 kts
2026-04-29 18:01 49.47876 22.11404 37334 ft 450 kts
2026-04-29 18:01 49.54110 22.12431 37332 ft 450 kts
2026-04-29 18:02 49.60341 22.13459 37332 ft 450 kts
2026-04-29 18:02 49.66573 22.14490 37330 ft 450 kts
2026-04-29 18:03 49.72802 22.15523 37337 ft 450 kts
2026-04-29 18:03 49.79029 22.16558 37340 ft 450 kts
2026-04-29 18:04 49.85251 22.17596 37344 ft 450 kts
2026-04-29 18:04 49.91485 22.18549 37340 ft 449 kts 359°
2026-04-29 18:04 49.94555 22.18044 37355 ft 443 kts 343°
2026-04-29 18:05 49.97518 22.16675 37347 ft 445 kts 344°
2026-04-29 18:05 50.03669 22.15505 37340 ft 446 kts 350°
2026-04-29 18:06 50.09759 22.13696 37352 ft 446 kts 349°
2026-04-29 18:06 50.15873 22.12051 37343 ft 446 kts 349°
2026-04-29 18:07 50.21989 22.10427 37364 ft 446 kts 349°
2026-04-29 18:07 50.28108 22.08800 37367 ft 445 kts 349°
2026-04-29 18:08 50.34215 22.07172 37361 ft 445 kts 349°
2026-04-29 18:08 50.40312 22.05542 37163 ft 442 kts 349°
2026-04-29 18:08 50.43338 22.04731 36919 ft 441 kts 349°
2026-04-29 18:09 50.46357 22.03922 36682 ft 441 kts 350°
2026-04-29 18:09 50.49383 22.03109 36463 ft 441 kts 350°
2026-04-29 18:09 50.52404 22.02298 36237 ft 441 kts 350°
2026-04-29 18:09 50.55427 22.01484 36013 ft 441 kts 350°
2026-04-29 18:10 50.58443 22.00671 35794 ft 441 kts 350°
2026-04-29 18:10 50.61471 21.99854 35574 ft 441 kts 350°
2026-04-29 18:10 50.64489 21.99039 35358 ft 441 kts 350°
2026-04-29 18:10 50.67514 21.98220 35138 ft 441 kts 350°
2026-04-29 18:11 50.70530 21.97403 34922 ft 440 kts 351°
2026-04-29 18:11 50.73552 21.96583 34700 ft 440 kts 351°
2026-04-29 18:11 50.76569 21.95763 34493 ft 438 kts 351°
2026-04-29 18:11 50.79532 21.94956 34292 ft 426 kts 351°
2026-04-29 18:12 50.82414 21.94171 34064 ft 414 kts 351°
2026-04-29 18:12 50.85243 21.93399 33831 ft 412 kts 351°
2026-04-29 18:12 50.88062 21.92629 33580 ft 410 kts 352°
2026-04-29 18:12 50.90861 21.91864 33326 ft 407 kts 352°
2026-04-29 18:13 50.93645 21.91102 33037 ft 405 kts 352°
2026-04-29 18:13 50.96413 21.90344 32645 ft 401 kts 352°
2026-04-29 18:13 50.99152 21.89592 32254 ft 398 kts 353°
2026-04-29 18:13 51.01869 21.88846 31879 ft 394 kts 353°
2026-04-29 18:14 51.04557 21.88106 31503 ft 391 kts 354°
2026-04-29 18:14 51.07229 21.87371 31126 ft 387 kts 354°
2026-04-29 18:14 51.09871 21.86642 30769 ft 384 kts 354°
2026-04-29 18:14 51.12488 21.85920 30395 ft 380 kts 355°
2026-04-29 18:15 51.15080 21.85203 29952 ft 377 kts 355°
2026-04-29 18:15 51.17649 21.84492 29512 ft 373 kts 355°
2026-04-29 18:15 51.20195 21.83786 29078 ft 369 kts 355°
2026-04-29 18:15 51.22716 21.83087 28651 ft 366 kts 355°
2026-04-29 18:16 51.25211 21.82395 28236 ft 363 kts 355°
2026-04-29 18:16 51.27688 21.81706 27823 ft 360 kts 356°
2026-04-29 18:16 51.30140 21.81024 27419 ft 357 kts 356°
2026-04-29 18:16 51.32579 21.80345 27024 ft 354 kts 356°
2026-04-29 18:17 51.34994 21.79672 26626 ft 351 kts 356°
2026-04-29 18:17 51.37390 21.79003 26243 ft 349 kts 356°
2026-04-29 18:17 51.39776 21.78336 25857 ft 346 kts 356°
2026-04-29 18:17 51.42141 21.77675 25484 ft 344 kts 356°
2026-04-29 18:18 51.44489 21.77017 25105 ft 342 kts 356°
2026-04-29 18:18 51.46829 21.76361 24739 ft 340 kts 356°
2026-04-29 18:18 51.49151 21.75710 24373 ft 338 kts 356°
2026-04-29 18:18 51.51467 21.75060 24011 ft 337 kts 356°
2026-04-29 18:19 51.53772 21.74412 23589 ft 335 kts 356°
2026-04-29 18:19 51.56063 21.73767 23172 ft 333 kts 355°
2026-04-29 18:19 51.58337 21.73127 22747 ft 332 kts 355°
2026-04-29 18:19 51.60577 21.72495 22336 ft 330 kts 355°
2026-04-29 18:20 51.62863 21.71850 21920 ft 328 kts 355°
2026-04-29 18:20 51.65102 21.71217 21514 ft 326 kts 355°
2026-04-29 18:20 51.67336 21.70586 21114 ft 325 kts 355°
2026-04-29 18:20 51.69527 21.69965 20729 ft 323 kts 355°
2026-04-29 18:21 51.71757 21.69333 20336 ft 321 kts 355°
2026-04-29 18:21 51.73892 21.68341 19943 ft 329 kts 339°
2026-04-29 18:21 51.75738 21.66068 19551 ft 339 kts 322°
2026-04-29 18:21 51.77480 21.63525 19148 ft 335 kts 329°
2026-04-29 18:22 51.79355 21.61229 18763 ft 335 kts 327°
2026-04-29 18:22 51.81142 21.58892 18323 ft 334 kts 327°
2026-04-29 18:22 51.82970 21.56510 17876 ft 333 kts 327°
2026-04-29 18:22 51.84767 21.54171 17410 ft 330 kts 327°
2026-04-29 18:23 51.86525 21.51881 16889 ft 325 kts 326°
2026-04-29 18:23 51.88282 21.49588 16374 ft 315 kts 326°
2026-04-29 18:23 51.89941 21.47421 15881 ft 307 kts 326°
2026-04-29 18:23 51.91598 21.45255 15375 ft 299 kts 326°
2026-04-29 18:24 51.93178 21.43190 14884 ft 293 kts 325°
2026-04-29 18:24 51.94753 21.41128 14400 ft 288 kts 325°
2026-04-29 18:24 51.96306 21.39095 13875 ft 287 kts 325°
2026-04-29 18:24 51.97854 21.37069 13332 ft 285 kts 324°
2026-04-29 18:25 51.99409 21.35031 12793 ft 282 kts 324°
2026-04-29 18:25 52.00903 21.33069 12281 ft 278 kts 324°
2026-04-29 18:25 52.02396 21.31107 11938 ft 271 kts 324°
2026-04-29 18:25 52.03863 21.29179 11865 ft 277 kts 324°
2026-04-29 18:26 52.05407 21.27151 11789 ft 294 kts 324°
2026-04-29 18:26 52.07039 21.25008 11879 ft 306 kts 324°
2026-04-29 18:26 52.08673 21.22855 11937 ft 299 kts 324°
2026-04-29 18:26 52.10280 21.20734 12123 ft 297 kts 324°
2026-04-29 18:27 52.11889 21.18609 12362 ft 298 kts 324°
2026-04-29 18:27 52.13503 21.16475 12324 ft 300 kts 324°
2026-04-29 18:27 52.15116 21.14339 12115 ft 298 kts 324°
2026-04-29 18:27 52.16709 21.12229 11897 ft 296 kts 324°
2026-04-29 18:28 52.18307 21.10110 11681 ft 294 kts 324°
2026-04-29 18:28 52.19888 21.08011 11467 ft 293 kts 323°
2026-04-29 18:28 52.21466 21.05915 11253 ft 291 kts 323°
2026-04-29 18:28 52.23034 21.03830 11045 ft 290 kts 323°
2026-04-29 18:29 52.24591 21.01757 10821 ft 289 kts 323°
2026-04-29 18:29 52.25622 21.00383 10657 ft 288 kts 323°
2026-04-29 18:29 52.27688 20.97629 10334 ft 285 kts 323°
2026-04-29 18:29 52.29207 20.95601 10083 ft 279 kts 323°
2026-04-29 18:30 52.30704 20.93600 9817 ft 275 kts 323°
2026-04-29 18:30 52.32173 20.91635 9555 ft 271 kts 323°
2026-04-29 18:30 52.33627 20.89689 9288 ft 270 kts 323°
2026-04-29 18:30 52.35078 20.87746 9020 ft 269 kts 323°
2026-04-29 18:31 52.36521 20.85811 8776 ft 267 kts 323°
2026-04-29 18:31 52.37958 20.83883 8517 ft 266 kts 323°
2026-04-29 18:31 52.39383 20.81968 8263 ft 265 kts 323°
2026-04-29 18:31 52.40808 20.80054 8011 ft 264 kts 323°
2026-04-29 18:32 52.42219 20.78156 7764 ft 261 kts 323°
2026-04-29 18:32 52.44912 20.74528 7175 ft 248 kts 322°
2026-04-29 18:32 52.46236 20.72742 6861 ft 245 kts 322°
2026-04-29 18:33 52.47555 20.70963 6490 ft 244 kts 322°
2026-04-29 18:33 52.48859 20.69202 6121 ft 244 kts 322°
2026-04-29 18:33 52.50167 20.67433 5777 ft 242 kts 322°
2026-04-29 18:33 52.51464 20.65680 5411 ft 241 kts 322°
2026-04-29 18:34 52.52590 20.63675 5068 ft 243 kts 300°
2026-04-29 18:34 52.52807 20.62851 5002 ft 242 kts 290°
2026-04-29 18:34 52.52810 20.58337 4996 ft 242 kts 266°
2026-04-29 18:34 52.52588 20.55560 4986 ft 249 kts 265°
2026-04-29 18:35 52.52344 20.52713 4987 ft 252 kts 265°
2026-04-29 18:35 52.52088 20.49860 4989 ft 252 kts 265°
2026-04-29 18:35 52.51826 20.47011 4993 ft 252 kts 265°
2026-04-29 18:35 52.51560 20.44166 4993 ft 252 kts 264°
2026-04-29 18:36 52.51290 20.41324 4994 ft 252 kts 264°
2026-04-29 18:36 52.51018 20.38482 5000 ft 252 kts 264°
2026-04-29 18:36 52.50745 20.35637 4997 ft 252 kts 264°
2026-04-29 18:36 52.50471 20.32798 4996 ft 252 kts 264°
2026-04-29 18:37 52.50196 20.29955 5009 ft 252 kts 264°
2026-04-29 18:37 52.49918 20.27113 5022 ft 252 kts 264°
2026-04-29 18:37 52.49639 20.24270 5011 ft 252 kts 264°
2026-04-29 18:37 52.49153 20.21503 4991 ft 256 kts 243°
2026-04-29 18:38 52.47900 20.19474 5017 ft 252 kts 209°
2026-04-29 18:38 52.46285 20.18795 5020 ft 241 kts 179°
2026-04-29 18:38 52.44636 20.19427 4945 ft 243 kts 152°
2026-04-29 18:38 52.43323 20.21113 4693 ft 239 kts 128°
2026-04-29 18:39 52.42323 20.23236 4378 ft 238 kts 122°
2026-04-29 18:39 52.41683 20.25683 4038 ft 231 kts 97°
2026-04-29 18:39 52.41642 20.28235 3910 ft 221 kts 81°
2026-04-29 18:39 52.41859 20.30741 3769 ft 224 kts 77°
2026-04-29 18:40 52.42111 20.33260 3618 ft 224 kts 77°
2026-04-29 18:40 52.42361 20.35812 3455 ft 223 kts 78°
2026-04-29 18:40 52.42599 20.38284 3256 ft 218 kts 78°
2026-04-29 18:40 52.42828 20.40666 3107 ft 205 kts 78°
2026-04-29 18:41 52.43413 20.46963 2478 ft 182 kts 79°
2026-04-29 18:41 52.43599 20.49018 2314 ft 182 kts 80°
2026-04-29 18:42 52.43710 20.50408 2164 ft 181 kts 82°
2026-04-29 18:42 52.43855 20.52360 1836 ft 164 kts 81°
2026-04-29 18:42 52.44040 20.54088 1581 ft 146 kts 78°
2026-04-29 18:42 52.44222 20.55686 1332 ft 142 kts 78°
2026-04-29 18:43 52.44394 20.57297 1130 ft 142 kts 81°
2026-04-29 18:43 52.44525 20.58894 927 ft 143 kts 82°
2026-04-29 18:43 52.44668 20.60492 760 ft 143 kts 80°
2026-04-29 18:43 52.44839 20.62074 534 ft 140 kts 82°
2026-04-29 18:44 52.44975 20.63646 372 ft 142 kts 82°
2026-04-29 18:44 52.45107 20.65035 339 ft 91 kts 81°
2026-04-29 18:44 52.45173 20.65739 349 ft 46 kts 78°
2026-04-29 18:44 52.45141 20.66002 339 ft 19 kts 157°
2026-04-29 18:45 52.45008 20.66079 341 ft 21 kts 161°
2026-04-29 18:45 52.44973 20.66098 338 ft 6 kts 161°
2026-04-29 18:45 52.44905 20.66135 341 ft 11 kts 174°
2026-04-29 18:45 52.44868 20.66094 337 ft 5 kts 256°
2026-04-29 18:46 52.44860 20.66006 341 ft 12 kts 261°
2026-04-29 18:46 52.44845 20.65854 340 ft 15 kts 262°
2026-04-29 18:46 52.44829 20.65670 340 ft 18 kts 262°
2026-04-29 18:46 52.44810 20.65458 339 ft 19 kts 261°
2026-04-29 18:47 52.44792 20.65263 336 ft 17 kts 261°
2026-04-29 18:47 52.44774 20.65070 339 ft 14 kts 262°
2026-04-29 18:47 52.44754 20.64974 338 ft 3 kts 213°
2026-04-29 18:47 52.44739 20.64958 335 ft 3 kts 207°
2026-04-29 18:48 52.44716 20.64940 337 ft 1 kts 206°
2026-04-29 18:48 52.44714 20.64939 338 ft 0 kts 206°